Columbia, SC

3:58 PM EST on January 20, 2017 (GMT -0500)
Columbia Owens Downtown

Weather History for KCUB - August, 2013

Change the Weather History Date:

Sunday, August 18, 2013

  Actual Average Record
Temperature  
Mean Temperature 78 °F 81 °F  
Max Temperature 87 °F 91 °F 99 °F (1999)
Min Temperature 69 °F 72 °F 67 °F (2008)
Degree Days  
Heating Degree Days 0 0  
Month to date heating degree days 0 0  
Since 1 June heating degree days 0 0  
Since 1 July heating degree days 0 0  
Cooling Degree Days 13 16  
Month to date cooling degree days 272 303  
Year to date cooling degree days 1539 1619  
Since 1 June cooling degree days 1229 1283  
Growing Degree Days 28 (Base 50)    
Moisture  
Dew Point 70 °F    
Average Humidity 87    
Maximum Humidity 97    
Minimum Humidity 57    
Precipitation  
Precipitation 0.39 in 0.15 in 0.89 in (2010)
Month to date precipitation 5.91 3.04  
Year to date precipitation 40.81 29.95  
Sea Level Pressure  
Sea Level Pressure 30.18 in    
Wind  
Wind Speed 1 mph (SW)    
Max Wind Speed 8 mph    
Max Gust Speed 10 mph    
Visibility 6 miles    
Events Rain    
T = Trace of Precipitation, MM = Missing Value Source: NWS Daily Summary

Daily Weather History Graph

Daily Weather History Graph

Search for Another Location

Airport or City:

Trip Planner

Search our weather history database for the weather conditions in past years. The results will help you decide how hot, cold, wet, or windy it might be!

Date:

Astronomy

Aug. 18, 2013 Rise Set
Actual Time 6:47 AM EDT 8:07 PM EDT
Civil Twilight 6:21 AM EDT 8:33 PM EDT
Nautical Twilight 5:50 AM EDT 9:04 PM EDT
Astronomical Twilight 5:17 AM EDT 9:36 PM EDT
Moon 6:09 PM EDT (8/18) 3:59 AM EDT (8/18)
Length of Visible Light 14h 11m
Length of Day
13h 19m
Waxing Gibbous, 92% of the Moon is Illuminated
Aug 18
Waxing Gibbous
Aug 20
Full
Aug 28
Last Quarter
Sep 5
New
Sep 12
First Quarter

Hourly Weather History & Observations

Time (EDT) Temp. Heat Index Dew Point Humidity Pressure Visibility Wind Dir Wind Speed Gust Speed Precip Events Conditions
12:53 AM 69.1 °F - 68.0 °F 96% 30.17 in 6.0 mi Calm Calm - 0.01 in   Overcast
1:39 AM 69.8 °F - 68.0 °F 94% 30.16 in 6.0 mi Calm Calm - N/A   Overcast
1:53 AM 69.1 °F - 68.0 °F 96% 30.16 in 7.0 mi Calm Calm - N/A   Overcast
2:53 AM 69.1 °F - 68.0 °F 96% 30.15 in 6.0 mi Calm Calm - N/A   Overcast
3:53 AM 69.1 °F - 68.0 °F 96% 30.15 in 4.0 mi Calm Calm - N/A   Overcast
4:53 AM 69.1 °F - 68.0 °F 96% 30.15 in 4.0 mi Calm Calm - N/A   Overcast
5:53 AM 69.1 °F - 68.0 °F 96% 30.16 in 4.0 mi Calm Calm - N/A   Overcast
6:53 AM 69.1 °F - 68.0 °F 96% 30.18 in 1.8 mi Calm Calm - N/A   Overcast
7:01 AM 69.8 °F - 68.0 °F 94% 30.19 in 2.5 mi Calm Calm - N/A   Overcast
7:13 AM 69.8 °F - 68.0 °F 94% 30.19 in 1.8 mi Calm Calm - N/A   Overcast
7:34 AM 69.8 °F - 68.0 °F 94% 30.19 in 2.5 mi Calm Calm - N/A   Overcast
7:53 AM 69.1 °F - 68.0 °F 96% 30.18 in 2.0 mi Calm Calm - N/A   Overcast
8:25 AM 69.8 °F - 68.0 °F 94% 30.19 in 4.0 mi Calm Calm - N/A   Overcast
8:50 AM 69.8 °F - 68.0 °F 94% 30.20 in 2.0 mi Calm Calm - N/A   Overcast
8:53 AM 70.0 °F - 68.0 °F 93% 30.20 in 2.0 mi Calm Calm - N/A   Overcast
9:12 AM 69.8 °F - 68.0 °F 94% 30.21 in 3.0 mi Calm Calm - N/A   Overcast
9:51 AM 71.6 °F - 69.8 °F 94% 30.22 in 6.0 mi Calm Calm - N/A   Overcast
9:53 AM 72.0 °F - 69.1 °F 91% 30.21 in 7.0 mi Calm Calm - N/A   Overcast
10:21 AM 71.6 °F - 69.8 °F 94% 30.23 in 10.0 mi Calm Calm - N/A   Overcast
10:53 AM 73.0 °F - 69.1 °F 87% 30.23 in 10.0 mi Calm Calm - N/A   Overcast
11:11 AM 73.4 °F - 68.0 °F 83% 30.23 in 10.0 mi Calm Calm - N/A   Overcast
11:28 AM 75.2 °F - 69.8 °F 83% 30.23 in 10.0 mi Calm Calm - N/A   Overcast
11:53 AM 75.9 °F - 69.1 °F 79% 30.22 in 10.0 mi Calm Calm - N/A   Mostly Cloudy
12:11 PM 78.8 °F - 69.8 °F 74% 30.22 in 10.0 mi Calm Calm - N/A   Partly Cloudy
12:38 PM 78.8 °F - 69.8 °F 74% 30.21 in 10.0 mi Calm Calm - N/A   Mostly Cloudy
12:53 PM 79.0 °F - 69.1 °F 72% 30.20 in 10.0 mi Calm Calm - N/A   Overcast
1:25 PM 80.6 °F 83.9 °F 69.8 °F 70% 30.20 in 10.0 mi Calm Calm - N/A   Partly Cloudy
1:53 PM 82.9 °F 87.0 °F 70.0 °F 65% 30.18 in 10.0 mi SSW 4.6 mph - N/A   Clear
2:53 PM 84.0 °F 89.0 °F 71.1 °F 65% 30.17 in 10.0 mi SW 3.5 mph - N/A   Scattered Clouds
3:53 PM 86.0 °F 90.7 °F 70.0 °F 59% 30.14 in 10.0 mi Variable 4.6 mph - N/A   Partly Cloudy
4:53 PM 87.1 °F 92.8 °F 71.1 °F 59% 30.12 in 10.0 mi Variable 3.5 mph - N/A   Partly Cloudy
5:53 PM 86.0 °F 92.2 °F 72.0 °F 63% 30.12 in 10.0 mi Variable 3.5 mph - N/A   Scattered Clouds
6:53 PM 82.9 °F 88.8 °F 73.0 °F 72% 30.12 in 10.0 mi Calm Calm - N/A   Clear
7:15 PM 82.4 °F 88.2 °F 73.4 °F 74% 30.14 in 1.8 mi Calm Calm - N/A   Haze
7:29 PM 80.6 °F 86.2 °F 75.2 °F 84% 30.15 in 5.0 mi SSW 6.9 mph - 0.00 in Rain Light Rain
7:53 PM 78.1 °F - 75.0 °F 90% 30.16 in 7.0 mi SW 4.6 mph - 0.01 in Rain Light Rain
8:40 PM 77.0 °F - 75.2 °F 94% 30.19 in 1.5 mi West 3.5 mph - 0.16 in Rain Heavy Rain
8:53 PM 77.0 °F - 75.0 °F 94% 30.18 in 1.5 mi Calm Calm - 0.26 in Rain Heavy Rain
9:02 PM 77.0 °F - 75.2 °F 94% 30.18 in 3.0 mi Calm Calm - 0.02 in Rain Rain
9:45 PM 75.2 °F - 73.4 °F 94% 30.18 in 10.0 mi WNW 4.6 mph - 0.03 in   Scattered Clouds
9:53 PM 75.9 °F - 73.9 °F 94% 30.17 in 10.0 mi Calm Calm - 0.03 in   Mostly Cloudy
10:53 PM 75.0 °F - 73.9 °F 96% 30.17 in 10.0 mi Calm Calm - N/A   Partly Cloudy
11:37 PM 75.2 °F - 73.4 °F 94% 30.19 in 5.0 mi Calm Calm - 0.02 in Rain Rain
11:53 PM 75.0 °F - 73.9 °F 96% 30.19 in 6.0 mi Calm Calm - 0.03 in Rain Light Rain